When you browse on this site, cookies collect data to enhance your experience and personalize the content and advertising you see.
Visit our Privacy Policy to learn more. By continuing to use the site, you agree to this use of cookies and data.
  • In Hungary
  • List of Countries
  • For 7 days
  • Water Temperature
  • Weather Map
  • News
  • Weather Widgets
  • user-avatar
    Login

    Hourly Weather Lomy

    Today, 21 January, Tuesday

    Time Temperature Precipitation Wind Pressure Humidity
    00:00 -1°C° 0.1 mm 5 mps 748 mmHg 87%
    01:00 -1°C° 0.1 mm 5 mps 747 mmHg 90%
    02:00 -1°C° 0 mm 5 mps 746 mmHg 91%
    03:00 0°C° 0.5 mm 5 mps 745 mmHg 92%
    04:00 0°C° 0.5 mm 5 mps 744 mmHg 94%
    05:00 -1°C° 0.5 mm 6 mps 743 mmHg 95%
    06:00 +1°C° 0.2 mm 6 mps 742 mmHg 93%
    07:00 +1°C° 0.2 mm 6 mps 741 mmHg 90%
    08:00 +2°C° 0 mm 6 mps 740 mmHg 85%
    09:00 +2°C° 0.2 mm 5 mps 740 mmHg 87%
    10:00 +2°C° 0.2 mm 5 mps 739 mmHg 88%
    11:00 +2°C° 0.2 mm 5 mps 739 mmHg 90%
    12:00 +2°C° 0.1 mm 5 mps 738 mmHg 90%
    13:00 +3°C° 0.1 mm 5 mps 738 mmHg 89%
    14:00 +3°C° 0.1 mm 5 mps 737 mmHg 89%
    15:00 +3°C° 0.4 mm 5 mps 737 mmHg 90%
    16:00 +3°C° 0.4 mm 6 mps 736 mmHg 91%
    17:00 +3°C° 0.4 mm 6 mps 735 mmHg 91%
    18:00 +2°C° 0.5 mm 6 mps 736 mmHg 88%
    19:00 +1°C° 0.5 mm 6 mps 736 mmHg 84%
    20:00 +1°C° 0.5 mm 6 mps 736 mmHg 81%
    21:00 -1°C° 0 mm 6 mps 736 mmHg 79%
    22:00 -2°C° 0 mm 6 mps 736 mmHg 76%
    23:00 -3°C° 0 mm 6 mps 737 mmHg 74%

    Tomorrow, 22 January, Wednesday

    Time Temperature Precipitation Wind Pressure Humidity
    00:00 -3°C° 0 mm 6 mps 737 mmHg 77%
    01:00 -3°C° 0 mm 6 mps 736 mmHg 79%
    02:00 -4°C° 0 mm 5 mps 736 mmHg 81%
    03:00 -4°C° 0 mm 5 mps 735 mmHg 82%
    04:00 -4°C° 0 mm 5 mps 735 mmHg 83%
    05:00 -4°C° 0 mm 5 mps 734 mmHg 84%
    06:00 -4°C° 0.1 mm 5 mps 733 mmHg 85%
    07:00 -4°C° 0.1 mm 5 mps 733 mmHg 85%
    08:00 -4°C° 0.1 mm 5 mps 733 mmHg 86%
    09:00 -4°C° 0.1 mm 5 mps 733 mmHg 81%
    10:00 -2°C° 0.1 mm 5 mps 732 mmHg 77%
    11:00 -2°C° 0.1 mm 5 mps 732 mmHg 73%
    12:00 -2°C° 0.1 mm 5 mps 732 mmHg 72%
    13:00 -4°C° 0.1 mm 5 mps 733 mmHg 72%
    14:00 -4°C° 0.1 mm 5 mps 733 mmHg 71%
    15:00 -4°C° 0 mm 5 mps 733 mmHg 74%
    16:00 -4°C° 0 mm 5 mps 734 mmHg 76%
    17:00 -5°C° 0 mm 5 mps 734 mmHg 79%
    18:00 -5°C° 0.1 mm 5 mps 734 mmHg 81%
    19:00 -5°C° 0.1 mm 6 mps 735 mmHg 83%
    20:00 -5°C° 0.1 mm 6 mps 736 mmHg 86%
    21:00 -6°C° 0.1 mm 6 mps 736 mmHg 82%
    22:00 -6°C° 0.1 mm 6 mps 736 mmHg 78%
    23:00 -7°C° 0.1 mm 5 mps 737 mmHg 74%

    Day after tomorrow, 23 January, Thursday

    Time Temperature Precipitation Wind Pressure Humidity
    00:00 -8°C° 0 mm 6 mps 738 mmHg 74%
    01:00 -8°C° 0 mm 6 mps 738 mmHg 73%
    02:00 -9°C° 0 mm 6 mps 739 mmHg 72%
    03:00 -9°C° 0 mm 6 mps 740 mmHg 71%
    04:00 -10°C° 0 mm 6 mps 740 mmHg 70%
    05:00 -10°C° 0 mm 6 mps 740 mmHg 68%
    06:00 -10°C° 0 mm 6 mps 741 mmHg 65%
    07:00 -10°C° 0 mm 5 mps 741 mmHg 63%
    08:00 -10°C° 0 mm 5 mps 742 mmHg 60%
    09:00 -8°C° 0.1 mm 5 mps 742 mmHg 63%
    10:00 -8°C° 0.1 mm 5 mps 742 mmHg 66%
    11:00 -8°C° 0.1 mm 6 mps 742 mmHg 69%
    12:00 -8°C° 0.1 mm 6 mps 743 mmHg 66%
    13:00 -7°C° 0.1 mm 5 mps 743 mmHg 64%
    14:00 -7°C° 0.1 mm 5 mps 743 mmHg 61%
    15:00 -8°C° 0 mm 5 mps 744 mmHg 62%
    16:00 -9°C° 0 mm 4 mps 744 mmHg 63%
    17:00 -9°C° 0 mm 4 mps 745 mmHg 64%
    18:00 -8°C° 0 mm 3 mps 745 mmHg 65%
    19:00 -9°C° 0 mm 3 mps 746 mmHg 67%
    20:00 -9°C° 0 mm 3 mps 746 mmHg 68%
    21:00 -9°C° 0 mm 3 mps 746 mmHg 70%
    22:00 -9°C° 0 mm 3 mps 746 mmHg 71%
    23:00 -9°C° 0 mm 3 mps 746 mmHg 73%

    24 January, Friday

    Time Temperature Precipitation Wind Pressure Humidity
    00:00 -8°C° 0 mm 2 mps 746 mmHg 72%
    01:00 -7°C° 0 mm 2 mps 746 mmHg 72%
    02:00 -7°C° 0 mm 2 mps 746 mmHg 71%
    03:00 -6°C° 0.1 mm 2 mps 745 mmHg 78%
    04:00 -7°C° 0.1 mm 3 mps 744 mmHg 85%
    05:00 -6°C° 0.1 mm 3 mps 743 mmHg 92%
    06:00 -7°C° 0.4 mm 4 mps 743 mmHg 93%
    07:00 -5°C° 0.4 mm 4 mps 742 mmHg 93%
    08:00 -4°C° 0.4 mm 4 mps 742 mmHg 93%
    09:00 -4°C° 0.1 mm 4 mps 741 mmHg 91%
    10:00 -3°C° 0.1 mm 4 mps 741 mmHg 88%
    11:00 -2°C° 0.1 mm 4 mps 740 mmHg 85%
    12:00 -2°C° 0 mm 5 mps 740 mmHg 85%
    13:00 -1°C° 0 mm 5 mps 740 mmHg 86%
    14:00 0°C° 0 mm 5 mps 740 mmHg 86%
    15:00 -1°C° 0 mm 5 mps 740 mmHg 86%
    16:00 -1°C° 0 mm 4 mps 740 mmHg 85%
    17:00 -1°C° 0 mm 4 mps 740 mmHg 85%
    18:00 -1°C° 0 mm 4 mps 740 mmHg 86%
    19:00 -1°C° 0 mm 4 mps 741 mmHg 86%
    20:00 -2°C° 0 mm 4 mps 741 mmHg 87%
    21:00 -2°C° 0 mm 4 mps 741 mmHg 88%
    22:00 -1°C° 0 mm 3 mps 741 mmHg 90%
    23:00 -1°C° 0 mm 3 mps 741 mmHg 91%

    25 January, Saturday

    Time Temperature Precipitation Wind Pressure Humidity
    00:00 -1°C° 0 mm 3 mps 742 mmHg 91%
    01:00 -1°C° 0 mm 3 mps 742 mmHg 92%
    02:00 -1°C° 0 mm 3 mps 742 mmHg 92%
    03:00 -1°C° 0 mm 3 mps 742 mmHg 91%
    04:00 -1°C° 0 mm 3 mps 742 mmHg 90%
    05:00 -1°C° 0 mm 2 mps 742 mmHg 89%
    06:00 -1°C° 0 mm 2 mps 742 mmHg 91%
    07:00 -1°C° 0 mm 2 mps 742 mmHg 93%
    08:00 -1°C° 0 mm 2 mps 742 mmHg 95%
    09:00 +1°C° 0 mm 2 mps 742 mmHg 95%
    10:00 +1°C° 0 mm 2 mps 742 mmHg 96%
    11:00 +1°C° 0 mm 3 mps 743 mmHg 96%
    12:00 +1°C° 0 mm 3 mps 742 mmHg 96%
    13:00 +1°C° 0 mm 3 mps 742 mmHg 95%
    14:00 +1°C° 0 mm 3 mps 742 mmHg 94%
    15:00 0°C° 0 mm 3 mps 742 mmHg 93%
    16:00 0°C° 0 mm 3 mps 742 mmHg 92%
    17:00 -1°C° 0 mm 3 mps 742 mmHg 91%
    18:00 -1°C° 0 mm 3 mps 742 mmHg 89%
    19:00 -1°C° 0 mm 3 mps 743 mmHg 88%
    20:00 0°C° 0 mm 3 mps 743 mmHg 86%
    21:00 -1°C° 0 mm 3 mps 743 mmHg 88%
    22:00 -2°C° 0 mm 3 mps 743 mmHg 90%
    23:00 -2°C° 0 mm 3 mps 743 mmHg 92%

    26 January, Sunday

    Time Temperature Precipitation Wind Pressure Humidity
    00:00 -2°C° 0 mm 3 mps 743 mmHg 91%
    01:00 -2°C° 0 mm 3 mps 744 mmHg 90%
    02:00 -4°C° 0 mm 3 mps 744 mmHg 89%
    03:00 -4°C° 0 mm 3 mps 744 mmHg 90%
    04:00 -4°C° 0 mm 3 mps 744 mmHg 90%
    05:00 -4°C° 0 mm 3 mps 744 mmHg 90%
    06:00 -4°C° 0 mm 3 mps 744 mmHg 91%
    07:00 -3°C° 0 mm 2 mps 745 mmHg 92%
    08:00 -4°C° 0 mm 2 mps 745 mmHg 92%
    09:00 -3°C° 0 mm 2 mps 745 mmHg 88%
    10:00 -2°C° 0 mm 2 mps 745 mmHg 85%
    11:00 -1°C° 0 mm 3 mps 745 mmHg 81%
    12:00 -1°C° 0 mm 2 mps 745 mmHg 82%
    13:00 -1°C° 0 mm 2 mps 745 mmHg 82%
    14:00 -1°C° 0 mm 2 mps 745 mmHg 83%
    15:00 -1°C° 0 mm 2 mps 745 mmHg 87%
    16:00 -1°C° 0 mm 3 mps 745 mmHg 91%
    17:00 -1°C° 0 mm 3 mps 745 mmHg 95%
    18:00 -1°C° 0.1 mm 3 mps 745 mmHg 96%
    19:00 -1°C° 0.1 mm 2 mps 745 mmHg 97%
    20:00 -1°C° 0.1 mm 2 mps 745 mmHg 97%
    21:00 -1°C° 0.1 mm 2 mps 745 mmHg 97%
    22:00 -1°C° 0.1 mm 2 mps 745 mmHg 96%
    23:00 -1°C° 0.1 mm 2 mps 745 mmHg 95%
    Show more